STARLINK-2040, 47656

Orbit data source: Space-Track

STARLINK-2040, 47656 is a payload satellite owned by SpaceX/Seattle (US) in LEO that was launched on Tue, 16 Feb 2021 UTC via an FALCON 9 launch vehicle from the Air Force Eastern Test Range (AFETR). Payload-class satellites include a variety of spacecraft equipped with specific instruments for various scientific and technological missions. These include communications satellites like Starlink; space stations such as the ISS; scientific satellites like the Hubble; Earth observation satellites from companies like Planet Labs, Umbra, and HawkEye 360; GPS; miniature CubeSats for education and research; and military/defense satellites.

Loading next visibility...
Identifier
47656, 2021-012AN
Orbit
LEO
Country
Flag of USUS
Related business
Manufacturer
SpaceX/Seattle
Mission
Operational Commercial Communications
Bus & Motor
STARLINK, Unknown motor
Mass
260 kg wet, ~248 kg dry
Launch date (UTC)
2021-02-16 (5 years ago)
Launch vehicle
FALCON 9
Launch site
Air Force Eastern Test Range (AFETR)
Object type
Payload
Rocket body
Debris
Shape & HBR
Box + 1 Pan, 4.4 m
Radar Cross Section
13.562 m², Large (>1 m²)

Expand to show TLE details & history
Last TLE update: 23 hours ago

TLE from 23 hours ago
0 STARLINK-2040
1 47656U 21012AN  25241.15837626  .00001343  00000-0  10899-3 0  9997
2 47656  53.0544 195.9243 0001360  92.1717 267.9428 15.06407535251249
Epoch: 2025-08-29T03:48Z
TLE epoch observation values (Epoch: 2025-08-29T03:48:03.708Z)
Latitude
-0.00002°
Longitude
161.2978°
Altitude
548.102 km
Speed
7.589 km/s
True Right ascension
13h 03m 41s
True Declination
0° 00' 00"
Sunlit
Object was in daylight at epoch
Visualization orbit readout
Latitude
Unknown
Longitude
Unknown
Altitude
Unknown
Speed
Unknown
Apparent Right ascension
Unknown
Apparent Declination
Unknown
Sunlit
N/A
Visualization observer readout
Local Sidereal Time
18:05:31
Azimuth
Unknown
Elevation
Unknown
Doppler factor
Unknown
Orbital elements
Apogee altitude
548.401 km
Perigee altitude
546.517 km
Semi-major axis
6,925.596 km
Eccentricity
0.00014
Inclination
53.0544°
RAAN
195.9243°
Arg. of periapsis
92.1717°
True anomaly
267.92723°
Mean anomaly
267.9428°
Eccentric anomaly
267.93501°
Mean motion
3.7658 °/min
Orbital period
95.6 mins
BSTAR
0.00010899
Loading maneuver chart data...
Computing Atmospheric mass density...

Documentation

Showing up to 5 results
|